Simultaneous Nadir Overpasses (SNOs) Predictions

Prediction of SNOs between METOP-B and NOAA-19 Satellite Orbit:

Table of predicted SNOs for the next 14.0 days since TLE Epoch: 9/2/2016
Index Date (METOP-B) Time (METOP-B) Lat,Lon (METOP-B) SZA (METOP-B ) Date (NOAA-19) Time (NOAA-19) Lat,Lon (NOAA-19) SZA (NOAA-19 ) Distance(km) Time Diff (sec)
1 09/08/2016 19:41:45 -76.53, 66.92 108.83 09/08/2016 19:40:34 -76.56, 65.36 108.82 40.44 71
2 09/08/2016 20:32:29 76.33,-126.47 70.98 09/08/2016 20:31:25 76.33,-126.49 70.98 0.58 64
3 09/08/2016 21:23:11 -76.33, 40.86 109.01 09/08/2016 21:22:30 -76.30, 40.87 109.04 3.83 41
4 09/08/2016 22:13:51 76.32,-151.88 70.99 09/08/2016 22:13:26 76.29,-151.84 70.97 2.64 25
5 09/08/2016 23:04:33 -76.32, 15.46 109.00 09/08/2016 23:04:32 -76.30, 15.35 109.01 3.27 1
6 09/08/2016 23:55:13 76.30,-177.28 71.00 09/08/2016 23:55:28 76.29,-177.36 71.00 2.15 15
7 09/09/2016 00:45:56 -76.25, -10.10 109.03 09/09/2016 00:46:33 -76.26, -10.00 109.03 2.90 37
8 09/09/2016 01:36:35 76.28, 157.32 71.01 09/09/2016 01:37:29 76.25, 157.30 70.99 3.22 54
9 09/09/2016 02:27:20 -76.15, -35.82 109.12 09/09/2016 02:28:33 -76.17, -35.18 109.08 17.34 73




NCC Satellite Simultaneous Nadir Overpasses (SNOs) Prediction Service
